Location: Arbon
(43.0005°N, 0.7472°E)
Time: 22:50:32
(UTC+00:00)

Explorer 7 - Pass Details

Date: 01 December 2020
Orbit: 484 x 678 km, 50.3° (Epoch: 26 January)

Event Time Altitude Azimuth Distance (km) Brightness Sun altitude
Rises 01:21:01 0° 242° (WSW) 2,961 - -61.1°
Reaches altitude 10° 01:23:24 10° 243° (WSW) 2,028 - -60.7°
Maximum altitude 01:28:05 81° 331° (NNW) 628 - -60.1°
Drops below altitude 10° 01:32:30 10° 59° (ENE) 1,917 - -59.4°
Sets 01:34:42 0° 60° (ENE) 2,785 - -59.1°
